Date,TemperatureHighF,TemperatureAvgF,TemperatureLowF,DewpointHighF,DewpointAvgF,DewpointLowF,HumidityHigh,HumidityAvg,HumidityLow,PressureMaxIn,PressureMinIn,WindSpeedMaxMPH,WindSpeedAvgMPH,GustSpeedMaxMPH,PrecipitationSumIn
2013-1-12,78.1,72.5,65.5,71.2,67.8,64.7,98,86,71,29.91,29.81,10,1,13,0.04
2013-1-13,76.3,67.6,65.4,67.2,65.5,64.5,98,93,74,29.89,29.83,8,0,8,0.00
2013-1-14,74.2,67.7,64.7,69.9,66.5,63.8,98,96,80,29.90,29.82,4,0,14,0.54
2013-1-15,64.8,61.3,57.2,63.0,60.5,56.6,99,97,88,29.90,29.85,0,0,0,0.01
2013-1-16,75.5,65.8,56.9,66.6,61.2,55.1,98,86,66,29.90,29.78,8,0,9,0.40
2013-1-17,74.2,65.4,57.1,64.5,60.9,56.5,99,86,69,29.87,29.78,1,0,8,0.01
2013-1-18,73.9,65.5,57.0,66.1,60.2,53.2,98,84,65,29.92,29.81,7,1,15,0.06
2013-1-19,74.5,66.6,57.3,60.5,56.4,53.9,90,71,55,30.01,29.89,3,1,13,0.00
2013-1-20,73.4,65.2,57.0,62.0,58.4,55.0,95,80,62,30.05,29.95,8,1,8,0.00
2013-1-21,74.8,66.9,59.0,64.1,61.1,57.1,94,83,66,30.10,30.01,10,1,11,0.00
2013-1-22,75.9,70.5,65.9,67.5,64.3,61.9,88,81,71,30.10,29.98,14,1,14,0.00
2013-1-23,74.3,70.1,67.3,66.0,63.9,61.4,93,81,72,30.04,29.95,8,1,11,0.00
2013-1-24,76.2,69.6,64.6,69.1,66.2,63.1,97,90,75,30.02,29.92,15,1,15,0.06
2013-1-25,80.7,67.9,60.1,69.7,64.7,59.2,97,90,63,29.99,29.91,6,0,9,0.86
2013-1-26,80.8,69.8,60.4,69.9,64.2,59.8,98,83,59,29.96,29.81,14,1,17,0.01
2013-1-27,73.2,71.4,68.0,69.0,65.5,62.4,96,82,72,29.86,29.79,7,1,16,0.14
2013-1-28,71.5,65.7,60.5,66.8,63.1,59.9,99,92,77,29.94,29.85,9,0,9,0.08
2013-1-29,75.3,67.9,60.6,69.3,64.8,60.1,99,90,77,29.96,29.88,10,1,10,0.01
2013-1-30,75.5,68.5,63.3,68.8,65.9,62.1,98,92,75,30.02,29.95,2,0,8,0.18
2013-1-31,75.0,68.5,62.7,67.1,64.9,62.1,98,89,76,30.07,29.99,9,1,10,0.01
2013-2-1,75.9,69.9,65.3,64.3,61.8,59.5,85,76,64,30.10,30.01,12,2,15,0.00
2013-2-2,74.2,69.7,64.3,65.7,64.0,61.6,91,82,72,30.10,30.02,9,2,14,0.00
2013-2-3,72.5,67.2,60.9,64.5,61.7,59.3,96,83,68,30.13,30.05,9,1,10,0.00
2013-2-4,73.3,69.4,65.4,64.4,60.8,57.9,94,75,63,30.14,30.03,9,2,15,0.03
2013-2-5,73.5,68.0,64.8,66.7,63.9,61.7,94,87,73,30.09,29.99,8,2,18,0.05
2013-2-6,72.3,68.6,64.1,66.9,64.5,62.2,94,87,77,30.06,30.00,5,1,11,0.13
2013-2-7,75.1,69.3,64.6,69.8,67.0,64.0,98,93,81,30.07,29.99,5,1,12,0.37
2013-2-8,77.9,71.3,66.6,69.5,67.1,65.6,98,87,69,30.08,29.98,8,1,13,0.07
2013-2-9,76.4,67.9,59.6,68.8,64.1,58.7,98,88,70,30.09,30.02,5,1,10,0.06
2013-2-10,75.8,69.2,63.4,67.7,65.3,61.9,96,88,73,30.18,30.07,7,1,13,0.20
2013-2-11,71.3,69.0,67.4,68.2,65.7,62.7,97,90,80,30.19,30.10,7,1,11,0.13
2013-2-12,72.7,68.1,64.7,65.3,61.3,58.6,88,79,73,30.17,30.06,7,1,12,0.02
2013-2-13,73.0,68.2,63.9,64.2,60.6,57.3,92,77,67,30.11,29.98,4,1,11,0.00
2013-2-14,64.1,63.3,62.6,61.6,60.8,59.0,95,91,87,30.06,30.00,0,0,1,0.01
2013-2-15,75.7,69.1,65.4,66.1,63.3,61.0,91,82,69,30.05,29.97,10,2,16,0.02
2013-2-16,70.5,69.1,66.8,67.3,65.8,64.7,94,89,86,30.07,30.03,4,2,14,0.17
2013-2-17,74.4,69.5,66.5,66.7,64.0,62.6,92,83,72,30.16,30.06,7,3,19,0.00
2013-2-18,73.1,69.6,65.7,65.4,62.7,60.3,92,79,68,30.14,30.05,7,2,22,1.75
2013-2-19,74.2,69.8,65.5,65.2,62.6,61.0,92,78,66,30.14,30.03,12,2,15,0.23
2013-2-20,75.0,69.4,65.2,67.1,65.0,62.4,96,86,75,30.13,30.05,12,3,19,0.52
2013-2-21,69.2,67.0,65.3,66.6,63.7,62.2,94,89,82,30.12,30.08,6,1,10,0.07
2013-2-22,73.8,68.4,66.3,68.7,65.7,64.8,96,91,83,30.12,30.05,10,2,15,0.32
2013-2-23,73.2,68.9,66.5,68.0,65.7,64.5,95,90,82,30.10,30.02,7,2,19,0.54
2013-2-24,75.0,69.1,65.3,67.4,63.9,61.9,93,84,72,30.11,30.00,8,1,14,0.06
2013-2-25,74.2,69.9,66.0,67.3,64.4,61.1,91,83,70,30.13,30.03,11,2,14,0.05
2013-2-26,75.4,71.0,66.9,66.1,64.6,63.0,89,80,69,30.13,30.04,13,3,18,0.05
2013-2-27,75.8,70.1,66.2,66.1,62.6,58.9,91,78,59,30.15,30.06,14,2,21,0.04
2013-2-28,75.7,70.0,64.7,65.0,61.6,58.2,90,75,57,30.18,30.08,13,2,17,0.00
2013-3-1,74.5,69.6,66.6,64.3,60.5,58.5,80,73,60,30.16,30.05,11,3,19,0.00
2013-3-2,74.4,69.8,65.9,64.2,60.5,56.6,82,73,60,30.17,30.05,10,2,16,0.00
2013-3-3,75.9,69.1,64.1,64.5,60.0,55.4,88,73,56,30.15,30.07,9,1,13,0.00
2013-3-4,73.7,68.7,64.1,62.0,59.0,56.6,79,72,58,30.16,30.07,9,2,14,0.00
2013-3-5,76.0,69.7,65.1,63.5,60.5,56.1,85,73,58,30.12,30.01,11,2,14,0.00
2013-3-6,76.9,69.9,63.2,67.3,63.2,59.9,95,80,66,30.10,29.98,10,2,14,0.00
2013-3-7,71.6,65.1,59.5,67.5,63.0,58.4,97,93,82,30.05,29.94,3,0,7,0.18
2013-3-8,81.4,68.4,55.3,67.8,61.0,54.5,98,79,50,29.95,29.76,7,0,10,0.02
2013-3-9,77.2,67.8,60.3,69.5,64.2,59.2,97,89,63,29.84,29.75,10,0,12,0.06
2013-3-10,76.2,67.0,59.1,64.3,61.0,56.8,97,82,61,29.96,29.80,6,1,11,0.01
2013-3-11,73.3,65.2,58.3,62.9,59.3,56.4,95,82,60,30.01,29.90,3,0,4,0.00
2013-3-12,76.2,66.4,56.6,63.6,59.4,55.5,97,79,61,30.04,29.93,7,1,11,0.00
2013-3-13,73.8,66.3,60.4,62.4,58.0,54.0,93,76,50,30.05,29.96,6,0,7,0.00
2013-3-14,75.5,66.0,57.6,62.6,57.7,54.8,92,76,55,30.03,29.91,4,0,8,0.00
2013-3-15,75.4,64.0,55.5,65.5,60.8,53.2,96,90,58,29.92,29.82,7,1,12,0.07
2013-3-16,74.6,65.6,59.8,61.1,58.3,54.3,95,78,57,29.98,29.87,7,1,15,0.07
2013-3-17,71.8,62.6,55.5,63.5,59.3,54.2,96,89,69,30.00,29.90,7,0,8,0.17
2013-3-18,74.1,64.0,55.4,61.8,56.7,54.1,97,79,53,29.98,29.88,5,0,8,0.00
2013-3-19,79.4,67.3,58.8,65.1,60.6,55.9,94,80,57,29.95,29.85,9,1,9,0.00
2013-3-20,82.8,70.1,56.3,68.0,61.8,54.3,95,77,50,29.99,29.86,9,0,10,0.00
2013-3-21,84.2,73.5,61.3,70.4,64.6,58.6,95,75,56,29.97,29.86,7,1,19,0.00
2013-3-22,78.3,71.0,65.5,70.1,66.4,64.6,97,86,71,29.96,29.87,7,1,14,2.03
2013-3-23,75.4,66.8,64.1,67.7,64.6,62.9,98,93,71,30.00,29.90,5,0,14,0.48
2013-3-24,75.4,70.9,63.9,67.3,65.7,62.7,97,84,71,30.01,29.90,7,2,14,0.16
2013-3-25,72.2,68.6,66.4,70.1,67.5,65.7,98,96,90,29.98,29.90,8,1,9,2.92
2013-3-26,72.8,69.4,67.6,69.6,67.8,66.7,98,95,88,30.01,29.91,9,2,12,1.83
2013-3-27,75.4,70.8,66.6,66.7,65.1,63.9,97,83,71,30.02,29.90,9,2,14,0.59
2013-3-28,73.8,68.7,65.7,68.7,66.0,64.4,97,91,80,30.03,29.93,7,1,13,0.19
2013-3-29,71.1,67.8,63.4,67.8,65.2,62.0,98,92,80,30.01,29.94,8,1,11,0.39
2013-3-30,75.9,66.4,60.8,67.5,61.6,54.6,99,85,69,30.03,29.95,7,1,13,0.12
2013-3-31,73.5,67.2,59.5,66.5,56.2,52.0,88,68,50,30.03,29.93,8,1,13,0.00
2013-4-1,73.6,65.4,59.3,61.3,58.0,53.9,96,78,58,29.97,29.89,7,1,11,0.19
2013-4-2,71.8,65.7,59.5,59.6,57.1,54.7,94,75,57,30.05,29.93,6,1,8,0.00
2013-4-3,71.9,64.1,57.4,64.5,59.6,55.4,96,86,70,30.04,29.96,3,0,11,0.10
2013-4-4,75.7,66.6,57.0,65.9,62.0,56.0,98,86,69,30.03,29.95,8,1,17,0.01
2013-4-5,79.3,69.6,60.4,67.9,64.1,59.5,98,84,66,30.05,29.96,7,2,12,0.00
2013-4-6,78.9,72.4,67.0,72.3,67.4,61.4,98,85,75,30.10,29.96,11,2,12,0.05
2013-4-7,80.6,72.5,65.1,72.6,68.4,64.2,99,88,71,30.12,30.00,9,2,13,0.00
2013-4-8,80.3,73.0,66.0,69.5,67.3,64.1,94,83,61,30.06,29.91,9,2,14,0.00
2013-4-9,80.7,72.6,66.0,70.0,67.0,62.4,95,84,62,30.02,29.90,10,2,13,0.00
2013-4-10,79.8,73.5,68.5,71.7,68.1,66.7,95,84,68,30.01,29.91,6,2,16,0.04
2013-4-11,83.9,73.5,64.3,71.3,68.1,63.4,98,84,62,29.99,29.85,11,2,16,0.00
2013-4-12,84.1,74.7,67.7,72.4,67.5,63.5,95,79,65,29.90,29.80,9,1,13,0.00
2013-4-13,79.7,73.7,69.1,68.6,65.3,59.4,91,75,60,29.89,29.74,10,2,17,0.41
2013-4-14,77.9,72.9,67.3,70.3,67.7,64.2,97,84,69,29.86,29.76,9,1,10,0.01
2013-4-15,77.9,69.7,62.9,70.7,66.8,62.0,98,91,72,29.99,29.84,6,0,6,0.07
2013-4-16,83.9,74.0,64.4,73.4,69.0,63.8,99,85,66,30.04,29.92,10,0,10,0.00
2013-4-17,81.0,73.7,66.1,72.6,68.9,65.0,97,86,66,30.10,29.99,5,2,16,0.34
2013-4-18,77.9,72.5,68.7,70.7,68.2,67.0,95,87,71,30.11,30.04,5,2,16,0.55
2013-4-19,75.8,70.5,67.9,70.5,68.3,66.1,97,93,83,30.08,29.98,4,2,14,2.26
2013-4-20,81.1,73.1,65.5,72.5,69.2,64.9,98,88,71,30.02,29.92,3,1,13,0.00
2013-4-21,77.8,71.0,66.0,71.4,68.4,65.1,98,92,78,29.97,29.88,6,0,6,0.24
2013-4-22,78.2,69.0,65.0,71.6,67.4,64.3,98,95,74,29.98,29.85,9,0,9,0.21
2013-4-23,75.2,69.0,64.4,70.5,66.5,63.2,99,92,75,30.01,29.90,7,0,7,0.65
2013-4-24,77.7,70.6,64.2,70.4,66.9,63.0,97,89,72,30.04,29.95,11,1,11,0.01
2013-4-25,80.5,73.5,68.3,74.1,69.3,66.0,98,87,64,30.02,29.93,13,1,17,0.23
2013-4-26,71.8,70.4,69.8,68.3,67.3,66.7,93,90,87,30.00,29.94,6,1,6,0.00
2013-4-27,83.0,74.7,69.6,69.6,67.3,64.1,89,78,63,29.98,29.87,4,1,14,0.00
2013-4-28,85.8,77.7,72.2,69.8,67.3,64.1,83,71,55,29.93,29.82,13,2,19,0.00
2013-4-29,89.1,77.7,72.6,72.5,68.5,64.9,89,74,49,29.89,29.79,15,1,15,0.00
2013-4-30,83.1,73.6,67.1,74.1,70.0,65.8,97,89,66,29.96,29.84,5,0,6,0.30
2013-5-1,82.5,75.0,67.5,72.9,69.2,66.5,99,83,64,30.02,29.92,16,2,16,0.03
2013-5-2,81.5,74.2,67.9,74.4,70.0,66.5,96,87,73,30.02,29.95,14,1,14,0.03
2013-5-3,84.2,74.6,66.9,72.3,68.3,65.7,97,82,57,30.01,29.90,9,1,11,0.00
2013-5-4,83.0,72.1,66.8,72.4,69.2,65.7,98,91,65,29.94,29.83,11,0,11,0.66
2013-5-5,78.0,70.5,66.8,72.4,68.3,66.0,98,93,80,29.89,29.80,10,1,10,0.21
2013-5-6,78.5,70.1,60.9,68.1,63.8,60.3,98,82,63,29.92,29.83,11,1,11,0.00
2013-5-7,77.8,69.1,59.2,64.9,62.4,58.2,98,80,60,29.94,29.86,10,1,10,0.00
2013-5-8,79.4,71.4,62.4,68.7,65.5,61.1,97,83,65,29.96,29.86,2,1,9,0.00
2013-5-9,79.1,72.2,66.0,69.8,67.4,64.5,98,86,71,30.02,29.91,6,1,8,0.02
2013-5-10,74.3,69.8,66.8,69.5,67.4,65.7,98,92,80,30.10,29.92,7,0,7,0.43
2013-5-11,76.5,70.4,65.6,68.4,65.2,62.7,97,84,71,30.09,30.01,8,1,10,0.01
2013-5-12,75.5,69.9,66.0,69.6,66.5,62.6,97,89,77,30.10,29.99,12,0,12,0.83
2013-5-13,78.5,72.0,68.7,72.8,70.1,67.6,98,94,78,30.04,29.96,16,2,16,2.33
2013-5-14,80.8,75.6,71.1,74.0,71.2,69.4,95,86,74,30.05,29.98,18,3,18,0.14
2013-5-15,81.3,74.2,70.6,73.2,70.1,68.0,95,87,71,30.10,30.03,13,1,13,0.06
2013-5-16,80.3,75.1,70.4,71.4,69.0,67.4,93,82,70,30.08,30.01,11,2,15,0.00
2013-5-17,80.3,74.5,68.2,70.4,68.0,65.0,94,81,62,30.05,29.94,24,2,24,0.00
2013-5-18,76.8,67.4,65.4,70.2,65.8,64.2,98,95,81,30.00,29.92,0,0,0,0.01
2013-5-20,76.2,67.9,57.6,67.5,63.4,56.9,98,86,71,29.94,29.85,2,0,9,0.00
2013-5-21,78.1,68.9,62.3,69.2,65.6,60.5,97,90,69,29.94,29.86,2,0,7,2.52
2013-5-22,81.3,71.3,62.4,70.4,66.7,61.8,98,86,66,29.99,29.88,2,0,8,0.00
2013-5-23,81.4,73.5,65.4,75.0,69.9,64.5,98,89,73,30.02,29.92,3,1,11,0.00
2013-5-24,82.5,75.6,69.5,73.9,70.7,68.3,97,86,65,30.02,29.97,4,1,12,1.25
2013-5-25,80.4,74.3,69.9,72.9,70.6,68.4,96,89,78,30.05,29.97,4,1,17,2.20
2013-5-26,79.8,74.4,70.4,71.2,69.3,67.3,95,85,72,30.06,29.98,9,1,15,0.09
2013-5-27,80.0,73.5,68.1,71.5,68.9,66.3,96,86,71,30.06,29.99,13,2,13,0.36
2013-5-28,81.0,73.4,67.4,74.3,69.7,65.8,98,89,70,30.04,29.98,14,1,14,0.55
2013-5-29,81.0,73.3,69.2,74.8,70.9,67.9,99,92,79,30.03,29.95,7,0,9,0.43
2013-5-30,80.7,74.3,66.9,74.5,70.7,66.3,98,89,77,29.99,29.89,10,2,13,0.15
2013-5-31,81.7,77.7,71.6,76.3,72.4,69.8,97,84,77,30.00,29.89,13,3,15,0.07
2013-6-1,81.5,75.3,72.0,73.8,71.4,69.2,96,88,71,30.06,29.95,12,1,13,0.14
2013-6-2,79.1,75.6,71.6,73.5,71.3,68.6,97,87,79,30.08,29.89,14,2,14,0.18
2013-6-3,81.8,76.1,71.4,72.6,68.6,65.8,91,78,65,30.07,29.98,18,2,18,0.01
2013-6-4,80.7,74.5,71.1,71.4,67.9,66.4,87,80,68,30.01,29.96,15,1,15,0.00
2013-6-5,81.7,75.2,70.3,71.2,68.5,65.0,96,80,61,30.03,29.95,15,2,15,0.06
2013-6-6,79.7,74.1,69.5,70.7,68.1,65.2,95,82,67,30.02,29.92,12,2,14,0.03
2013-6-7,80.2,73.8,69.3,71.5,68.5,66.9,96,84,70,30.02,29.93,17,2,17,0.05
2013-6-8,81.0,75.4,71.7,71.5,68.8,66.6,90,80,66,30.03,29.94,16,2,16,0.03
2013-6-9,81.1,75.2,70.8,72.0,69.4,67.4,93,82,69,30.04,29.97,14,2,14,0.03
2013-6-10,81.2,74.7,71.0,71.7,69.5,68.1,94,84,69,30.03,29.95,13,1,13,0.08
2013-6-11,81.5,74.7,70.3,72.7,69.9,68.1,97,86,68,29.99,29.92,14,1,15,0.06
2013-6-12,81.7,75.4,70.6,73.2,70.6,69.1,97,86,70,30.03,29.96,19,2,19,0.49
2013-6-13,79.5,75.7,71.3,73.5,70.7,68.7,95,85,76,30.08,29.95,17,3,18,0.30
2013-6-14,80.4,74.5,70.6,71.4,69.3,67.1,94,84,67,30.07,29.96,16,2,17,0.09
2013-6-15,80.0,72.9,69.2,72.5,69.8,67.7,97,90,72,30.00,29.90,16,1,16,0.27
2013-6-16,80.5,73.7,68.8,73.1,69.9,67.8,98,88,73,29.99,29.90,15,1,15,0.36
2013-6-17,78.5,73.8,70.2,73.0,70.1,67.9,95,88,78,30.06,29.94,14,1,14,0.32
2013-6-18,80.1,75.1,71.0,74.8,70.8,68.3,95,87,76,30.04,29.97,15,2,16,0.24
2013-7-21,71.2,70.6,70.1,70.0,69.4,68.9,96,96,95,29.99,29.91,0,0,4,0.98
2013-7-22,82.3,74.7,65.7,74.6,70.6,65.1,98,88,73,29.97,29.89,4,1,14,0.82
2013-7-23,83.0,76.7,72.3,77.3,73.7,71.4,98,91,78,29.96,29.89,4,1,12,1.79
2013-7-24,83.0,76.8,71.3,75.0,72.2,70.1,98,86,70,29.95,29.85,4,1,13,0.10
2013-7-25,82.6,76.2,69.3,73.3,70.4,68.1,97,83,64,29.92,29.86,4,1,16,0.00
2013-7-26,81.7,76.1,71.9,72.5,70.3,68.3,90,83,69,29.99,29.90,4,1,13,0.00
2013-7-27,82.7,76.0,71.0,74.1,71.0,69.5,96,85,67,30.00,29.92,4,1,12,1.76
2013-7-28,81.7,75.9,70.9,73.9,71.2,68.3,95,86,71,29.98,29.89,10,1,13,0.09
2013-7-29,81.3,76.9,73.6,78.2,75.1,72.4,98,94,88,29.92,29.83,13,1,15,0.72
2013-7-30,83.0,77.5,74.7,78.8,75.1,73.0,98,92,79,30.07,29.75,10,1,18,1.67
2013-7-31,82.8,77.9,74.6,76.4,74.0,71.7,96,88,76,30.08,30.01,17,2,17,0.03
2013-8-1,81.2,76.1,71.9,74.2,71.0,68.9,94,85,72,30.07,29.97,16,2,18,0.06
2013-8-2,81.7,75.4,69.9,75.3,71.4,68.7,97,88,71,30.02,29.93,14,1,14,0.40
2013-8-3,81.9,75.7,71.3,74.1,71.2,69.6,96,86,72,30.00,29.93,13,1,14,0.08
2013-8-4,82.3,75.8,70.6,74.1,71.0,68.4,96,85,72,30.00,29.92,13,2,15,0.04
2013-8-5,82.1,75.6,70.8,75.2,71.6,69.3,96,88,76,29.98,29.90,5,1,16,0.39
2013-8-6,81.7,76.0,70.9,73.0,70.7,69.4,97,84,67,29.99,29.92,4,1,14,0.25
2013-8-7,82.3,75.3,69.0,72.8,70.3,67.8,97,85,71,30.01,29.93,4,1,16,0.48
2013-8-8,82.1,75.2,69.2,73.7,70.7,68.0,96,87,69,30.03,29.95,5,1,14,0.94
2013-8-9,81.7,75.1,69.5,74.2,71.5,68.9,98,89,73,30.03,29.92,4,1,11,0.74
2013-8-10,81.9,75.4,71.4,75.7,72.1,67.7,96,89,74,29.99,29.93,14,1,19,0.36
2013-8-11,80.0,75.7,73.2,75.7,73.4,71.3,97,93,83,30.01,29.94,13,2,13,0.49
2013-8-12,82.0,76.6,72.2,74.1,71.3,69.2,94,84,67,30.04,29.97,15,2,15,0.03
2013-8-13,82.3,76.2,71.9,73.4,70.8,68.8,92,84,70,30.03,29.93,12,2,15,0.02
2013-8-14,81.3,75.6,70.6,74.7,71.2,68.1,95,86,72,29.98,29.90,16,2,16,0.14
2013-8-15,80.2,74.3,71.7,73.1,70.3,68.9,93,88,74,29.99,29.93,13,1,13,0.00
2013-8-16,82.0,78.9,71.4,74.1,71.8,68.7,94,79,72,30.01,29.94,13,3,16,0.08
2013-8-17,81.9,75.9,70.2,73.2,69.6,66.1,90,81,73,30.01,29.92,4,2,14,0.00
2013-8-18,82.5,76.5,71.6,74.3,70.9,68.8,96,83,69,30.00,29.91,15,2,15,0.25
2013-8-19,83.6,75.1,68.4,74.6,70.4,66.2,98,86,66,29.99,29.90,13,1,13,0.12
2013-8-20,81.8,74.0,66.7,74.8,70.1,64.9,97,88,75,29.96,29.84,12,1,13,0.07
2013-8-21,83.5,73.7,66.9,77.0,71.3,66.2,99,92,78,29.92,29.83,7,0,7,0.22
2013-8-22,81.5,71.4,67.6,74.8,69.4,66.7,98,94,78,29.91,29.87,12,1,12,0.01
2013-9-2,82.7,76.2,71.7,71.7,69.4,68.0,92,80,65,29.99,29.89,5,2,16,0.00
2013-9-3,83.6,76.3,70.9,73.4,70.8,68.8,95,84,68,29.99,29.89,4,1,11,0.00
2013-9-4,83.7,75.1,67.8,73.8,69.8,66.6,97,85,61,29.97,29.89,4,1,12,0.00
2013-9-5,85.2,74.9,65.5,74.0,68.4,64.6,98,82,55,30.03,29.92,3,1,12,0.00
2013-9-6,83.9,75.0,66.7,72.8,69.4,65.0,97,84,66,30.02,29.94,5,1,15,0.00
2013-9-7,81.3,73.7,68.7,74.9,71.4,67.8,97,93,78,30.02,29.92,3,0,14,4.25
2013-9-8,84.5,76.8,69.9,75.5,72.2,68.7,98,86,70,30.01,29.93,15,1,15,0.03
2013-9-9,84.1,77.1,71.3,73.6,70.9,67.4,95,82,59,30.03,29.95,12,1,13,0.00
2013-9-10,83.8,75.4,69.4,75.1,71.6,67.8,99,89,69,30.02,29.94,12,1,12,0.99
2013-9-11,83.5,75.6,69.3,76.2,72.0,68.9,99,89,71,30.03,29.94,11,1,11,0.18
2013-9-12,77.3,73.8,69.7,75.4,72.6,68.7,99,96,89,29.99,29.90,12,0,12,0.90
2013-9-13,80.0,75.1,71.7,74.6,72.4,69.6,98,91,78,29.92,29.83,14,1,14,0.11
2013-9-14,84.9,77.7,72.0,75.3,72.3,70.5,97,84,67,29.88,29.81,17,1,17,0.05
2013-9-15,85.4,77.1,71.1,77.8,73.1,70.5,99,88,68,29.94,29.84,13,1,13,0.09
2013-9-16,82.4,77.2,72.6,74.8,72.5,70.5,97,86,72,30.01,29.91,12,1,14,0.02
2013-9-17,81.0,76.0,72.4,74.0,72.3,70.8,97,89,76,30.00,29.92,16,1,16,0.22
2013-9-18,83.5,76.3,71.9,75.7,72.5,70.7,98,88,71,29.96,29.90,15,1,15,0.61
2013-9-19,82.7,76.3,70.5,74.2,71.6,69.1,97,86,70,30.00,29.90,14,1,14,0.15
2013-9-20,83.0,75.4,70.8,75.3,71.6,68.8,98,89,69,30.01,29.94,13,1,13,0.13
2013-9-21,82.5,76.4,71.0,73.9,70.6,68.9,96,83,68,30.00,29.91,16,2,16,0.02
2013-9-22,83.3,76.0,71.5,73.4,70.5,68.2,94,84,66,29.98,29.91,12,1,12,0.04
2013-9-23,82.0,74.8,68.3,75.4,71.4,67.3,98,89,75,29.98,29.88,9,1,9,0.04
2013-9-24,80.8,74.5,70.4,75.2,71.7,69.0,97,91,77,29.97,29.89,18,1,18,0.60
2013-9-25,83.3,75.1,70.7,75.0,71.7,70.1,98,89,71,30.01,29.92,11,1,12,0.27
2013-9-26,79.7,73.2,68.6,75.6,71.2,68.0,99,94,81,29.96,29.86,8,0,15,0.88
2013-9-27,82.3,76.0,71.7,74.6,71.3,69.1,96,86,72,30.04,29.89,15,2,16,0.16
2013-9-28,83.3,76.1,71.0,75.0,71.5,69.2,97,86,70,30.05,29.97,17,1,17,0.11
2013-9-29,82.3,75.6,71.5,73.5,71.0,69.5,97,86,70,30.03,29.91,13,1,14,0.43
2013-9-30,80.8,72.9,68.7,75.2,70.7,67.6,99,93,76,29.99,29.89,11,0,11,1.42
2013-10-1,81.4,75.1,69.3,74.5,71.7,68.4,98,90,76,29.96,29.86,15,1,15,0.94
2013-10-2,79.2,75.3,73.6,73.4,72.4,71.4,95,91,82,29.92,29.85,10,1,10,0.14
2013-10-3,83.3,76.7,68.5,75.0,71.7,67.7,98,85,67,29.92,29.84,4,2,15,0.00
2013-10-4,83.1,76.1,71.1,74.6,71.5,69.3,96,86,70,29.95,29.88,4,1,14,0.00
2013-10-5,81.9,76.0,71.9,73.1,71.1,69.7,96,85,72,29.97,29.88,4,1,12,0.00
2013-10-6,81.5,74.6,69.9,74.3,70.8,68.2,96,89,72,29.95,29.87,4,1,12,0.74
2013-10-7,81.5,75.5,70.5,75.5,71.7,69.3,97,88,75,30.01,29.90,4,1,17,0.83
2013-10-8,81.6,75.6,70.9,74.8,71.4,69.7,97,87,74,30.01,29.95,11,1,15,0.12
2013-10-9,80.9,75.7,71.0,74.4,71.0,69.3,96,86,74,30.00,29.91,9,2,13,0.17
2013-10-10,79.3,71.2,68.5,73.3,69.1,67.6,97,93,82,30.01,29.92,2,0,10,0.00
2013-10-11,68.6,68.6,68.6,67.7,67.7,67.7,97,97,97,29.93,29.93,0,0,0,0.00
2013-10-12,80.0,73.1,66.7,74.8,71.3,66.4,99,94,84,29.96,29.88,2,0,3,0.09
2013-10-13,81.3,73.3,67.6,74.4,70.3,66.4,99,91,76,29.94,29.86,8,0,8,0.01
2013-10-14,81.2,72.3,65.0,74.2,69.5,64.1,98,91,77,29.92,29.84,5,0,6,0.54
2013-10-15,81.8,73.6,66.3,75.4,70.3,65.8,99,90,75,29.93,29.83,11,1,11,0.06
2013-10-16,83.7,74.4,66.4,75.8,70.4,65.9,99,88,69,29.93,29.84,8,1,11,0.01
2013-10-17,82.9,73.2,65.3,73.1,69.4,64.7,99,89,71,29.94,29.86,2,0,8,0.00
2013-10-18,82.8,72.4,63.9,74.2,68.3,62.6,98,88,69,29.91,29.81,9,0,9,0.01
2013-10-19,84.2,74.1,66.8,73.2,69.6,65.3,99,87,57,29.84,29.77,10,0,11,0.12
2013-10-20,81.6,72.3,64.3,71.7,67.5,63.4,98,86,65,29.90,29.79,9,0,9,0.00
2013-10-21,83.2,72.6,63.3,71.5,67.6,62.6,99,85,61,29.93,29.82,7,0,7,0.01
2013-10-22,82.0,73.1,69.6,75.6,70.8,68.3,98,93,75,29.94,29.87,10,0,10,0.15
2013-10-23,79.8,73.7,70.5,74.5,71.4,69.3,98,93,79,29.97,29.87,9,0,9,0.14
2013-10-24,82.3,74.8,65.6,73.6,68.5,-99.9,99,83,67,29.94,29.83,11,-10,11,0.01
2013-10-25,83.9,74.1,66.6,74.9,69.7,65.6,98,87,67,29.95,29.84,11,1,11,0.00
2013-10-26,85.8,75.1,66.2,75.8,71.5,65.3,99,89,64,29.94,29.85,6,0,6,0.02
2013-10-27,84.5,76.3,69.4,76.5,72.5,68.5,98,89,74,29.96,29.87,8,0,8,0.00
2013-10-28,84.6,75.1,67.3,77.0,71.6,66.7,99,90,74,29.99,29.87,7,1,10,0.01
2013-10-29,83.7,75.9,69.5,75.5,71.5,68.5,99,87,70,29.99,29.91,14,1,14,0.04
2013-10-30,84.5,75.0,68.6,73.3,70.2,65.9,98,86,58,30.05,29.94,14,1,14,0.15
2013-10-31,82.8,73.9,67.2,76.1,71.0,66.6,99,91,72,30.06,29.97,10,1,10,0.13
2013-11-1,80.3,73.5,68.8,73.7,70.5,67.6,98,91,78,30.05,29.94,11,1,11,0.15
2013-11-2,81.3,73.1,68.8,73.7,69.4,67.6,96,89,72,30.05,29.95,17,1,17,0.23
2013-11-3,81.1,73.6,68.9,74.2,69.7,67.9,98,88,70,30.05,29.95,13,1,13,0.14
2013-11-4,79.0,71.9,67.5,72.6,69.4,66.9,99,92,75,30.00,29.91,10,0,10,0.27
2013-11-5,81.1,72.8,67.5,74.1,70.1,66.3,99,92,73,29.97,29.89,14,0,14,1.24
2013-11-6,80.5,71.8,67.3,72.7,69.2,66.7,99,92,74,29.94,29.82,11,1,11,1.03
2013-11-7,79.5,71.1,63.5,74.9,69.4,62.9,99,94,81,29.93,29.83,7,0,7,0.37
2013-11-8,81.5,73.0,68.8,75.6,71.1,67.9,99,94,80,29.94,29.83,13,0,13,1.96
2013-11-9,76.2,71.7,68.6,74.3,70.1,67.0,99,95,84,29.89,29.80,16,1,16,1.02
2013-11-10,76.4,72.8,68.7,69.1,65.6,59.4,95,79,66,29.98,29.84,17,3,17,0.18
2013-11-11,77.8,70.8,62.0,64.4,61.6,59.4,94,74,57,29.97,29.87,13,1,13,0.01
2013-11-12,73.6,65.7,59.9,68.0,62.9,58.8,97,91,75,29.98,29.88,11,0,11,0.30
2013-11-13,74.3,64.5,58.4,66.1,61.7,57.4,99,91,68,29.97,29.87,6,0,6,0.10
2013-11-14,80.0,68.9,59.0,69.2,64.0,57.9,99,86,60,29.95,29.83,8,0,8,0.00
2013-11-15,79.8,73.1,69.3,76.3,71.8,67.7,99,96,86,29.99,29.87,8,0,8,0.14
2013-11-16,80.6,75.3,69.8,75.0,72.2,68.8,99,91,78,30.00,29.89,12,1,12,0.00
2013-11-17,85.2,75.7,69.6,74.0,71.3,68.1,97,87,63,29.96,29.83,5,0,7,0.00
2013-11-18,82.3,72.0,64.8,74.7,69.1,64.2,99,91,73,29.90,29.80,4,0,4,0.00
2013-11-19,88.5,75.2,66.1,71.6,66.9,64.0,98,78,47,29.89,29.76,9,0,9,0.01
2013-11-20,82.0,71.6,65.6,74.0,68.4,64.1,97,90,70,29.92,29.77,7,0,7,0.02
2013-11-21,86.8,73.1,65.9,72.1,68.1,64.3,98,85,57,29.94,29.85,9,0,9,0.01
2013-11-22,80.5,70.9,64.6,72.8,67.6,63.7,99,90,73,29.99,29.91,10,0,10,0.02
2013-11-23,77.5,70.3,66.0,70.4,65.7,62.0,98,86,67,29.99,29.89,9,0,9,0.27
2013-11-24,79.0,71.6,63.2,68.4,65.8,61.7,97,83,65,29.98,29.86,9,1,9,0.00
2013-11-25,78.0,69.6,61.4,69.7,65.0,60.2,98,86,70,30.03,29.90,12,1,12,0.00
2013-11-26,79.5,72.4,67.4,72.0,67.0,62.3,95,83,70,30.06,29.91,10,1,11,0.00
2013-11-27,80.9,72.6,66.9,70.2,67.7,65.1,96,85,70,30.05,29.88,4,1,10,0.00
2013-11-28,83.2,71.1,61.1,69.2,65.5,60.2,99,84,57,29.95,29.84,2,0,7,0.00
2013-11-29,82.7,74.0,66.7,70.7,67.1,57.0,97,80,49,29.87,29.73,20,1,20,0.01
2013-11-30,79.5,74.9,71.5,72.7,68.8,55.9,96,83,45,29.83,29.70,24,2,24,2.24
2013-12-1,77.8,68.8,62.0,70.4,66.7,61.4,99,93,72,29.91,29.79,13,0,15,3.41
2013-12-2,78.5,69.1,60.3,73.9,67.0,59.7,99,93,79,29.94,29.85,5,0,5,0.13
2013-12-3,82.5,71.6,65.1,74.7,69.7,64.8,100,94,76,29.92,29.80,8,0,8,0.13
2013-12-4,82.7,72.4,65.5,73.8,69.1,64.9,99,90,65,29.92,29.81,5,0,7,0.01
2013-12-5,80.8,70.1,63.2,72.0,66.9,62.6,99,90,69,29.96,29.84,4,0,4,0.00
2013-12-6,76.0,69.5,63.1,72.0,68.2,62.4,99,96,85,29.97,29.85,7,0,7,0.93
2013-12-7,82.8,72.5,64.2,73.3,68.7,63.3,98,89,67,29.91,29.80,9,0,9,0.03
2013-12-8,80.6,72.0,64.6,75.4,69.6,63.9,99,92,76,29.94,29.83,10,0,10,0.30
2013-12-9,83.8,76.5,70.3,75.9,71.7,69.2,98,86,68,30.04,29.89,11,0,11,0.00
2013-12-10,79.8,73.1,69.0,75.2,71.5,68.6,99,95,85,30.02,29.91,7,0,7,0.18
2013-12-11,78.7,71.0,69.0,73.5,69.9,68.5,99,96,84,30.00,29.92,5,0,6,0.05
2013-12-12,81.9,72.5,65.8,72.0,69.2,64.9,99,90,69,30.00,29.88,8,0,8,0.00
2013-12-13,79.2,70.9,68.4,72.9,69.6,67.3,99,96,77,30.00,29.89,7,0,7,0.08
2013-12-14,79.3,71.3,69.0,72.4,69.8,68.1,99,95,78,30.00,29.81,5,0,5,0.42
2013-12-15,70.9,69.7,69.0,70.6,69.4,68.6,99,99,98,30.00,29.95,0,0,0,0.00
2013-12-16,80.5,69.5,61.3,72.0,66.6,60.4,99,91,68,29.95,29.84,6,0,6,0.02
2013-12-17,78.7,68.7,60.9,69.6,64.9,60.3,99,89,66,30.00,29.89,13,1,13,0.01
2013-12-18,78.0,69.9,64.4,71.6,67.3,63.7,99,92,74,30.02,29.90,7,0,7,0.13
2013-12-19,79.1,71.5,66.5,72.1,68.8,65.3,98,91,75,29.99,29.90,14,1,14,1.07
2013-12-20,81.2,71.9,65.9,72.3,68.8,65.2,99,91,66,29.98,29.90,11,1,11,0.27
2013-12-21,77.3,69.6,64.7,73.6,68.2,64.0,99,95,85,29.96,29.87,5,0,5,0.50
2013-12-22,79.1,69.5,61.6,72.2,66.8,61.3,100,92,74,29.96,29.86,8,0,8,0.01
2013-12-23,78.0,70.6,65.1,71.1,68.0,64.5,99,92,76,30.02,29.90,11,1,11,0.25
2013-12-24,78.8,70.2,65.3,72.2,67.9,64.4,99,93,74,30.04,29.94,6,0,9,0.32
2013-12-25,80.0,69.9,64.2,71.5,67.0,63.6,99,91,70,30.02,29.92,10,0,10,0.05
2013-12-26,77.8,70.5,65.2,70.4,67.1,63.7,99,90,71,29.99,29.88,11,0,11,0.08
2013-12-27,78.4,71.0,65.8,71.0,67.4,65.2,99,89,66,29.97,29.86,8,1,13,0.14
2013-12-28,79.7,71.4,66.4,71.5,67.8,65.8,99,89,69,29.96,29.83,10,1,10,0.05
2013-12-29,75.3,70.5,66.1,67.1,63.9,59.5,97,80,66,29.98,29.88,10,1,10,0.12
2013-12-30,73.5,67.4,63.1,67.8,64.3,60.1,97,90,76,29.98,29.88,7,0,7,0.18
2013-12-31,75.7,69.0,64.1,69.5,66.0,63.0,98,91,77,29.96,29.85,10,1,10,0.05
2014-1-1,81.0,69.1,59.9,71.2,65.2,59.4,99,89,65,29.90,29.77,8,0,8,0.01
2014-1-2,82.8,71.7,65.0,72.2,67.4,63.7,99,88,62,29.80,29.61,11,1,11,0.56